Year,Month,Day,Hour,Minute,Value (Times are PST for temperature in C)
2007,08,24,00,00,14.80
2007,08,24,00,01,14.80
2007,08,24,00,02,14.80
2007,08,24,00,03,14.80
2007,08,24,00,04,14.80
2007,08,24,00,05,14.80
2007,08,24,00,06,14.80
2007,08,24,00,07,14.80
2007,08,24,00,08,14.70
2007,08,24,00,09,14.70
2007,08,24,00,10,14.70
2007,08,24,00,11,14.70
2007,08,24,00,12,14.70
2007,08,24,00,13,14.60
2007,08,24,00,14,14.60
2007,08,24,00,15,14.60
2007,08,24,00,16,14.60
2007,08,24,00,17,14.60
2007,08,24,00,18,14.50
2007,08,24,00,19,14.50
2007,08,24,00,20,14.50
2007,08,24,00,21,14.50
2007,08,24,00,22,14.50
2007,08,24,00,23,14.50
2007,08,24,00,24,14.50
2007,08,24,00,25,14.40
2007,08,24,00,26,14.40
2007,08,24,00,27,14.40
2007,08,24,00,28,14.40
2007,08,24,00,29,14.40
2007,08,24,00,30,14.40
2007,08,24,00,31,14.40
2007,08,24,00,32,14.40
2007,08,24,00,33,14.40
2007,08,24,00,34,14.40
2007,08,24,00,35,14.40
2007,08,24,00,36,14.40
2007,08,24,00,37,14.40
2007,08,24,00,38,14.40
2007,08,24,00,39,14.40
2007,08,24,00,40,14.40
2007,08,24,00,41,14.40
2007,08,24,00,42,14.40
2007,08,24,00,43,14.40
2007,08,24,00,44,14.40
2007,08,24,00,45,14.40
2007,08,24,00,46,14.30
2007,08,24,00,47,14.30
2007,08,24,00,48,14.30
2007,08,24,00,49,14.30
2007,08,24,00,50,14.30
2007,08,24,00,51,14.20
2007,08,24,00,52,14.20
2007,08,24,00,53,14.20
2007,08,24,00,54,14.20
2007,08,24,00,55,14.20
2007,08,24,00,56,14.20
2007,08,24,00,57,14.20
2007,08,24,00,58,14.20
2007,08,24,00,59,14.20
2007,08,24,01,00,14.20
2007,08,24,01,01,14.20
2007,08,24,01,02,14.20
2007,08,24,01,03,14.20
2007,08,24,01,04,14.20
2007,08,24,01,05,14.10
2007,08,24,01,06,14.10
2007,08,24,01,07,14.10
2007,08,24,01,08,14.10
2007,08,24,01,09,14.10
2007,08,24,01,10,14.10
2007,08,24,01,11,14.10
2007,08,24,01,12,14.10
2007,08,24,01,13,14.10
2007,08,24,01,14,14.10
2007,08,24,01,15,14.10
2007,08,24,01,16,14.00
2007,08,24,01,17,14.00
2007,08,24,01,18,14.00
2007,08,24,01,19,14.00
2007,08,24,01,20,14.00
2007,08,24,01,21,14.00
2007,08,24,01,22,14.00
2007,08,24,01,23,14.00
2007,08,24,01,24,14.00
2007,08,24,01,25,14.00
2007,08,24,01,26,14.10
2007,08,24,01,27,14.10
2007,08,24,01,28,14.10
2007,08,24,01,29,14.10
2007,08,24,01,30,14.10
2007,08,24,01,31,14.10
2007,08,24,01,32,14.00
2007,08,24,01,33,14.00
2007,08,24,01,34,14.00
2007,08,24,01,35,14.00
2007,08,24,01,36,14.00
2007,08,24,01,37,14.00
2007,08,24,01,38,14.00
2007,08,24,01,39,14.00
2007,08,24,01,40,14.10
2007,08,24,01,41,14.10
2007,08,24,01,42,14.10
2007,08,24,01,43,14.10
2007,08,24,01,44,14.10
2007,08,24,01,45,14.10
2007,08,24,01,46,14.10
2007,08,24,01,47,14.10
2007,08,24,01,48,14.10
2007,08,24,01,49,14.10
2007,08,24,01,50,14.20
2007,08,24,01,51,14.20
2007,08,24,01,52,14.20
2007,08,24,01,53,14.20
2007,08,24,01,54,14.20
2007,08,24,01,55,14.20
2007,08,24,01,56,14.20
2007,08,24,01,57,14.20
2007,08,24,01,58,14.20
2007,08,24,01,59,14.20
2007,08,24,02,00,14.20
2007,08,24,02,01,14.20
2007,08,24,02,02,14.20
2007,08,24,02,03,14.20
2007,08,24,02,04,14.20
2007,08,24,02,05,14.20
2007,08,24,02,06,14.20
2007,08,24,02,07,14.20
2007,08,24,02,08,14.20
2007,08,24,02,09,14.20
2007,08,24,02,10,14.20
2007,08,24,02,11,14.20
2007,08,24,02,12,14.20
2007,08,24,02,13,14.20
2007,08,24,02,14,14.20
2007,08,24,02,15,14.10
2007,08,24,02,16,14.10
2007,08,24,02,17,14.10
2007,08,24,02,18,14.10
2007,08,24,02,19,14.10
2007,08,24,02,20,14.10
2007,08,24,02,21,14.10
2007,08,24,02,22,14.10
2007,08,24,02,23,14.10
2007,08,24,02,24,14.10
2007,08,24,02,25,14.10
2007,08,24,02,26,14.10
2007,08,24,02,27,14.10
2007,08,24,02,28,14.10
2007,08,24,02,29,14.10
2007,08,24,02,30,14.10
2007,08,24,02,31,14.10
2007,08,24,02,32,14.10
2007,08,24,02,33,14.10
2007,08,24,02,34,14.00
2007,08,24,02,35,14.00
2007,08,24,02,36,14.00
2007,08,24,02,37,14.00
2007,08,24,02,38,14.00
2007,08,24,02,39,14.00
2007,08,24,02,40,14.00
2007,08,24,02,41,14.00
2007,08,24,02,42,14.00
2007,08,24,02,43,14.00
2007,08,24,02,44,14.00
2007,08,24,02,45,14.00
2007,08,24,02,46,14.00
2007,08,24,02,47,14.00
2007,08,24,02,48,14.00
2007,08,24,02,49,14.00
2007,08,24,02,50,13.90
2007,08,24,02,51,13.90
2007,08,24,02,52,13.90
2007,08,24,02,53,13.90
2007,08,24,02,54,13.90
2007,08,24,02,55,13.90
2007,08,24,02,56,13.90
2007,08,24,02,57,13.80
2007,08,24,02,58,13.80
2007,08,24,02,59,13.80
2007,08,24,03,00,13.80
2007,08,24,03,01,13.80
2007,08,24,03,02,13.80
2007,08,24,03,03,13.80
2007,08,24,03,04,13.80
2007,08,24,03,05,13.80
2007,08,24,03,06,13.80
2007,08,24,03,07,13.80
2007,08,24,03,08,13.80
2007,08,24,03,09,13.80
2007,08,24,03,10,13.70
2007,08,24,03,11,13.70
2007,08,24,03,12,13.70
2007,08,24,03,13,13.70
2007,08,24,03,14,13.70
2007,08,24,03,15,13.60
2007,08,24,03,16,13.60
2007,08,24,03,17,13.60
2007,08,24,03,18,13.60
2007,08,24,03,19,13.50
2007,08,24,03,20,13.50
2007,08,24,03,21,13.50
2007,08,24,03,22,13.50
2007,08,24,03,23,13.40
2007,08,24,03,24,13.40
2007,08,24,03,25,13.40
2007,08,24,03,26,13.40
2007,08,24,03,27,13.40
2007,08,24,03,28,13.40
2007,08,24,03,29,13.30
2007,08,24,03,30,13.30
2007,08,24,03,31,13.30
2007,08,24,03,32,13.30
2007,08,24,03,33,13.20
2007,08,24,03,34,13.20
2007,08,24,03,35,13.20
2007,08,24,03,36,13.20
2007,08,24,03,37,13.20
2007,08,24,03,38,13.10
2007,08,24,03,39,13.10
2007,08,24,03,40,13.00
2007,08,24,03,41,13.00
2007,08,24,03,42,13.00
2007,08,24,03,43,12.90
2007,08,24,03,44,12.90
2007,08,24,03,45,12.90
2007,08,24,03,46,12.80
2007,08,24,03,47,12.80
2007,08,24,03,48,12.80
2007,08,24,03,49,12.80
2007,08,24,03,50,12.80
2007,08,24,03,51,12.80
2007,08,24,03,52,12.80
2007,08,24,03,53,12.80
2007,08,24,03,54,12.80
2007,08,24,03,55,12.80
2007,08,24,03,56,12.80
2007,08,24,03,57,12.80
2007,08,24,03,58,12.80
2007,08,24,03,59,12.80
2007,08,24,04,00,12.80
2007,08,24,04,01,12.80
2007,08,24,04,02,12.80
2007,08,24,04,03,12.80
2007,08,24,04,04,12.80
2007,08,24,04,05,12.80
2007,08,24,04,06,12.80
2007,08,24,04,07,12.80
2007,08,24,04,08,12.80
2007,08,24,04,09,12.80
2007,08,24,04,10,12.80
2007,08,24,04,11,12.80
2007,08,24,04,12,12.80
2007,08,24,04,13,12.80
2007,08,24,04,14,12.80
2007,08,24,04,15,12.80
2007,08,24,04,16,12.80
2007,08,24,04,17,12.80
2007,08,24,04,18,12.80
2007,08,24,04,19,12.80
2007,08,24,04,20,12.80
2007,08,24,04,21,12.80
2007,08,24,04,22,12.70
2007,08,24,04,23,12.70
2007,08,24,04,24,12.70
2007,08,24,04,25,12.70
2007,08,24,04,26,12.70
2007,08,24,04,27,12.60
2007,08,24,04,28,12.60
2007,08,24,04,29,12.60
2007,08,24,04,30,12.60
2007,08,24,04,31,12.60
2007,08,24,04,32,12.60
2007,08,24,04,33,12.60
2007,08,24,04,34,12.60
2007,08,24,04,35,12.60
2007,08,24,04,36,12.70
2007,08,24,04,37,12.70
2007,08,24,04,38,12.80
2007,08,24,04,39,12.80
2007,08,24,04,40,12.80
2007,08,24,04,41,12.80
2007,08,24,04,42,12.80
2007,08,24,04,43,12.80
2007,08,24,04,44,12.80
2007,08,24,04,45,12.80
2007,08,24,04,46,12.80
2007,08,24,04,47,12.80
2007,08,24,04,48,12.80
2007,08,24,04,49,12.80
2007,08,24,04,50,12.80
2007,08,24,04,51,12.80
2007,08,24,04,52,12.90
2007,08,24,04,53,12.90
2007,08,24,04,54,12.90
2007,08,24,04,55,13.00
2007,08,24,04,56,12.90
2007,08,24,04,57,12.90
2007,08,24,04,58,12.90
2007,08,24,04,59,13.00
2007,08,24,05,00,13.00
2007,08,24,05,01,13.00
2007,08,24,05,02,13.10
2007,08,24,05,03,13.10
2007,08,24,05,04,13.10
2007,08,24,05,05,13.10
2007,08,24,05,06,13.10
2007,08,24,05,07,13.10
2007,08,24,05,08,13.00
2007,08,24,05,09,13.00
2007,08,24,05,10,13.00
2007,08,24,05,11,13.00
2007,08,24,05,12,13.00
2007,08,24,05,13,13.00
2007,08,24,05,14,13.10
2007,08,24,05,15,13.10
2007,08,24,05,16,13.10
2007,08,24,05,17,13.10
2007,08,24,05,18,13.10
2007,08,24,05,19,13.00
2007,08,24,05,20,13.00
2007,08,24,05,21,13.00
2007,08,24,05,22,13.00
2007,08,24,05,23,13.00
2007,08,24,05,24,13.00
2007,08,24,05,25,13.00
2007,08,24,05,26,12.90
2007,08,24,05,27,12.90
2007,08,24,05,28,13.00
2007,08,24,05,29,13.00
2007,08,24,05,30,13.00
2007,08,24,05,31,13.00
2007,08,24,05,32,13.00
2007,08,24,05,33,13.00
2007,08,24,05,34,13.00
2007,08,24,05,35,13.00
2007,08,24,05,36,13.00
2007,08,24,05,37,13.00
2007,08,24,05,38,13.00
2007,08,24,05,39,13.00
2007,08,24,05,40,13.00
2007,08,24,05,41,13.00
2007,08,24,05,42,13.00
2007,08,24,05,43,13.00
2007,08,24,05,44,13.00
2007,08,24,05,45,13.00
2007,08,24,05,46,13.00
2007,08,24,05,47,13.00
2007,08,24,05,48,13.00
2007,08,24,05,49,13.00
2007,08,24,05,50,13.00
2007,08,24,05,51,13.00
2007,08,24,05,52,13.00
2007,08,24,05,53,12.90
2007,08,24,05,54,12.90
2007,08,24,05,55,12.90
2007,08,24,05,56,12.90
2007,08,24,05,57,12.90
2007,08,24,05,58,12.90
2007,08,24,05,59,12.90
2007,08,24,06,00,12.90
2007,08,24,06,01,12.90
2007,08,24,06,02,12.90
2007,08,24,06,03,12.90
2007,08,24,06,04,12.90
2007,08,24,06,05,12.90
2007,08,24,06,06,12.90
2007,08,24,06,07,12.90
2007,08,24,06,08,12.90
2007,08,24,06,09,12.90
2007,08,24,06,10,12.90
2007,08,24,06,11,12.90
2007,08,24,06,12,12.90
2007,08,24,06,13,12.90
2007,08,24,06,14,12.90
2007,08,24,06,15,12.90
2007,08,24,06,16,12.90
2007,08,24,06,17,12.90
2007,08,24,06,18,12.90
2007,08,24,06,19,12.90
2007,08,24,06,20,12.90
2007,08,24,06,21,12.90
2007,08,24,06,22,12.80
2007,08,24,06,23,12.80
2007,08,24,06,24,12.80
2007,08,24,06,25,12.80
2007,08,24,06,26,12.80
2007,08,24,06,27,12.80
2007,08,24,06,28,12.90
2007,08,24,06,29,12.90
2007,08,24,06,30,12.90
2007,08,24,06,31,12.90
2007,08,24,06,32,12.90
2007,08,24,06,33,12.90
2007,08,24,06,34,12.90
2007,08,24,06,35,13.00
2007,08,24,06,36,13.00
2007,08,24,06,37,13.00
2007,08,24,06,38,13.00
2007,08,24,06,39,13.00
2007,08,24,06,40,12.90
2007,08,24,06,41,12.90
2007,08,24,06,42,12.80
2007,08,24,06,43,12.80
2007,08,24,06,44,12.80
2007,08,24,06,45,12.80
2007,08,24,06,46,12.80
2007,08,24,06,47,12.80
2007,08,24,06,48,12.70
2007,08,24,06,49,12.70
2007,08,24,06,50,12.70
2007,08,24,06,51,12.70
2007,08,24,06,52,12.60
2007,08,24,06,53,12.60
2007,08,24,06,54,12.60
2007,08,24,06,55,12.60
2007,08,24,06,56,12.60
2007,08,24,06,57,12.60
2007,08,24,06,58,12.70
2007,08,24,06,59,12.70
2007,08,24,07,00,12.80
2007,08,24,07,01,12.80
2007,08,24,07,02,12.80
2007,08,24,07,03,12.80
2007,08,24,07,04,12.90
2007,08,24,07,05,12.90
2007,08,24,07,06,13.00
2007,08,24,07,07,13.00
2007,08,24,07,08,13.10
2007,08,24,07,09,13.10
2007,08,24,07,10,13.20
2007,08,24,07,11,13.20
2007,08,24,07,12,13.30
2007,08,24,07,13,13.30
2007,08,24,07,14,13.30
2007,08,24,07,15,13.30
2007,08,24,07,16,13.30
2007,08,24,07,17,13.40
2007,08,24,07,18,13.50
2007,08,24,07,19,13.50
2007,08,24,07,20,13.50
2007,08,24,07,21,13.60
2007,08,24,07,22,13.60
2007,08,24,07,23,13.70
2007,08,24,07,24,13.70
2007,08,24,07,25,13.70
2007,08,24,07,26,13.70
2007,08,24,07,27,13.70
2007,08,24,07,28,13.70
2007,08,24,07,29,13.70
2007,08,24,07,30,13.70
2007,08,24,07,31,13.80
2007,08,24,07,32,13.80
2007,08,24,07,33,13.90
2007,08,24,07,34,13.90
2007,08,24,07,35,14.00
2007,08,24,07,36,14.00
2007,08,24,07,37,14.00
2007,08,24,07,38,14.10
2007,08,24,07,39,14.20
2007,08,24,07,40,14.20
2007,08,24,07,41,14.20
2007,08,24,07,42,14.30
2007,08,24,07,43,14.30
2007,08,24,07,44,14.40
2007,08,24,07,45,14.50
2007,08,24,07,46,14.50
2007,08,24,07,47,14.60
2007,08,24,07,48,14.60
2007,08,24,07,49,14.70
2007,08,24,07,50,14.80
2007,08,24,07,51,14.80
2007,08,24,07,52,14.80
2007,08,24,07,53,14.90
2007,08,24,07,54,15.00
2007,08,24,07,55,15.10
2007,08,24,07,56,15.10
2007,08,24,07,57,15.20
2007,08,24,07,58,15.20
2007,08,24,07,59,15.30
2007,08,24,08,00,15.30
2007,08,24,08,01,15.30
2007,08,24,08,02,15.40
2007,08,24,08,03,15.40
2007,08,24,08,04,15.40
2007,08,24,08,05,15.40
2007,08,24,08,06,15.50
2007,08,24,08,07,15.40
2007,08,24,08,08,15.40
2007,08,24,08,09,15.40
2007,08,24,08,10,15.40
2007,08,24,08,11,15.40
2007,08,24,08,12,15.40
2007,08,24,08,13,15.40
2007,08,24,08,14,15.40
2007,08,24,08,15,15.40
2007,08,24,08,16,15.30
2007,08,24,08,17,15.30
2007,08,24,08,18,15.30
2007,08,24,08,19,15.30
2007,08,24,08,20,15.30
2007,08,24,08,21,15.30
2007,08,24,08,22,15.30
2007,08,24,08,23,15.30
2007,08,24,08,24,15.20
2007,08,24,08,25,15.20
2007,08,24,08,26,15.20
2007,08,24,08,27,15.20
2007,08,24,08,28,15.30
2007,08,24,08,29,15.30
2007,08,24,08,30,15.30
2007,08,24,08,31,15.30
2007,08,24,08,32,15.40
2007,08,24,08,33,15.40
2007,08,24,08,34,15.50
2007,08,24,08,35,15.50
2007,08,24,08,36,15.50
2007,08,24,08,37,15.60
2007,08,24,08,38,15.60
2007,08,24,08,39,15.60
2007,08,24,08,40,15.60
2007,08,24,08,41,15.60
2007,08,24,08,42,15.60
2007,08,24,08,43,15.70
2007,08,24,08,44,15.70
2007,08,24,08,45,15.70
2007,08,24,08,46,15.80
2007,08,24,08,47,15.80
2007,08,24,08,48,15.80
2007,08,24,08,49,15.80
2007,08,24,08,50,15.80
2007,08,24,08,51,15.80
2007,08,24,08,52,15.80
2007,08,24,08,53,15.80
2007,08,24,08,54,15.80
2007,08,24,08,55,15.80
2007,08,24,08,56,15.80
2007,08,24,08,57,15.80
2007,08,24,08,58,15.80
2007,08,24,08,59,15.80
2007,08,24,09,00,15.80
2007,08,24,09,01,15.80
2007,08,24,09,02,15.80
2007,08,24,09,03,15.80
2007,08,24,09,04,15.80
2007,08,24,09,05,15.90
2007,08,24,09,06,15.90
2007,08,24,09,07,16.00
2007,08,24,09,08,16.10
2007,08,24,09,09,16.10
2007,08,24,09,10,16.10
2007,08,24,09,11,16.10
2007,08,24,09,12,16.10
2007,08,24,09,13,16.10
2007,08,24,09,14,16.10
2007,08,24,09,15,16.10
2007,08,24,09,16,16.10
2007,08,24,09,17,16.10
2007,08,24,09,18,16.20
2007,08,24,09,19,16.20
2007,08,24,09,20,16.30
2007,08,24,09,21,16.30
2007,08,24,09,22,16.40
2007,08,24,09,23,16.50
2007,08,24,09,24,16.60
2007,08,24,09,25,16.70
2007,08,24,09,26,16.70
2007,08,24,09,27,16.70
2007,08,24,09,28,16.70
2007,08,24,09,29,16.70
2007,08,24,09,30,16.70
2007,08,24,09,31,16.70
2007,08,24,09,32,16.70
2007,08,24,09,33,16.70
2007,08,24,09,34,16.70
2007,08,24,09,35,16.70
2007,08,24,09,36,16.70
2007,08,24,09,37,16.70
2007,08,24,09,38,16.60
2007,08,24,09,39,16.60
2007,08,24,09,40,16.70
2007,08,24,09,41,16.70
2007,08,24,09,42,16.70
2007,08,24,09,43,16.70
2007,08,24,09,44,16.70
2007,08,24,09,45,16.70
2007,08,24,09,46,16.70
2007,08,24,09,47,16.60
2007,08,24,09,48,16.50
2007,08,24,09,49,16.40
2007,08,24,09,50,16.40
2007,08,24,09,51,16.50
2007,08,24,09,52,16.40
2007,08,24,09,53,16.40
2007,08,24,09,54,16.40
2007,08,24,09,55,16.40
2007,08,24,09,56,16.40
2007,08,24,09,57,16.40
2007,08,24,09,58,16.40
2007,08,24,09,59,16.40
2007,08,24,10,00,16.40
2007,08,24,10,01,16.40
2007,08,24,10,02,16.40
2007,08,24,10,03,16.40
2007,08,24,10,04,16.40
2007,08,24,10,05,16.40
2007,08,24,10,06,16.40
2007,08,24,10,07,16.40
2007,08,24,10,08,16.40
2007,08,24,10,09,16.50
2007,08,24,10,10,16.50
2007,08,24,10,11,16.60
2007,08,24,10,12,16.60
2007,08,24,10,13,16.70
2007,08,24,10,14,16.70
2007,08,24,10,15,16.80
2007,08,24,10,16,16.90
2007,08,24,10,17,16.90
2007,08,24,10,18,17.00
2007,08,24,10,19,17.00
2007,08,24,10,20,16.90
2007,08,24,10,21,16.90
2007,08,24,10,22,17.00
2007,08,24,10,23,17.00
2007,08,24,10,24,17.00
2007,08,24,10,25,17.00
2007,08,24,10,26,17.10
2007,08,24,10,27,17.10
2007,08,24,10,28,17.10
2007,08,24,10,29,17.10
2007,08,24,10,30,17.10
2007,08,24,10,31,17.20
2007,08,24,10,32,17.20
2007,08,24,10,33,17.20
2007,08,24,10,34,17.30
2007,08,24,10,35,17.30
2007,08,24,10,36,17.30
2007,08,24,10,37,17.30
2007,08,24,10,38,17.30
2007,08,24,10,39,17.30
2007,08,24,10,40,17.30
2007,08,24,10,41,17.30
2007,08,24,10,42,17.30
2007,08,24,10,43,17.30
2007,08,24,10,44,17.30
2007,08,24,10,45,17.30
2007,08,24,10,46,17.30
2007,08,24,10,47,17.40
2007,08,24,10,48,17.40
2007,08,24,10,49,17.40
2007,08,24,10,50,17.30
2007,08,24,10,51,17.30
2007,08,24,10,52,17.30
2007,08,24,10,53,17.30
2007,08,24,10,54,17.30
2007,08,24,10,55,17.30
2007,08,24,10,56,17.30
2007,08,24,10,57,17.30
2007,08,24,10,58,17.30
2007,08,24,10,59,17.30
2007,08,24,11,00,17.30
2007,08,24,11,01,17.30
2007,08,24,11,02,17.30
2007,08,24,11,03,17.30
2007,08,24,11,04,17.30
2007,08,24,11,05,17.30
2007,08,24,11,06,17.40
2007,08,24,11,07,17.40
2007,08,24,11,08,17.50
2007,08,24,11,09,17.60
2007,08,24,11,10,17.70
2007,08,24,11,11,17.70
2007,08,24,11,12,17.70
2007,08,24,11,13,17.80
2007,08,24,11,14,17.80
2007,08,24,11,15,17.90
2007,08,24,11,16,17.90
2007,08,24,11,17,17.90
2007,08,24,11,18,17.90
2007,08,24,11,19,18.00
2007,08,24,11,20,18.10
2007,08,24,11,21,18.10
2007,08,24,11,22,18.00
2007,08,24,11,23,17.90
2007,08,24,11,24,17.90
2007,08,24,11,25,17.90
2007,08,24,11,26,18.00
2007,08,24,11,27,18.10
2007,08,24,11,28,18.10
2007,08,24,11,29,18.00
2007,08,24,11,30,17.90
2007,08,24,11,31,17.90
2007,08,24,11,32,17.90
2007,08,24,11,33,17.90
2007,08,24,11,34,17.90
2007,08,24,11,35,17.90
2007,08,24,11,36,17.90
2007,08,24,11,37,17.90
2007,08,24,11,38,17.90
2007,08,24,11,39,18.00
2007,08,24,11,40,17.90
2007,08,24,11,41,17.90
2007,08,24,11,42,18.00
2007,08,24,11,43,18.10
2007,08,24,11,44,18.20
2007,08,24,11,45,18.20
2007,08,24,11,46,18.20
2007,08,24,11,47,18.20
2007,08,24,11,48,18.20
2007,08,24,11,49,18.20
2007,08,24,11,50,18.20
2007,08,24,11,51,18.20
2007,08,24,11,52,18.20
2007,08,24,11,53,18.20
2007,08,24,11,54,18.30
2007,08,24,11,55,18.30
2007,08,24,11,56,18.30
2007,08,24,11,57,18.20
2007,08,24,11,58,18.30
2007,08,24,11,59,18.30
2007,08,24,12,00,18.20
2007,08,24,12,01,18.30
2007,08,24,12,02,18.30
2007,08,24,12,03,18.30
2007,08,24,12,04,18.30
2007,08,24,12,05,18.20
2007,08,24,12,06,18.10
2007,08,24,12,07,18.10
2007,08,24,12,08,18.10
2007,08,24,12,09,18.10
2007,08,24,12,10,18.10
2007,08,24,12,11,18.10
2007,08,24,12,12,18.10
2007,08,24,12,13,18.10
2007,08,24,12,14,18.20
2007,08,24,12,15,18.20
2007,08,24,12,16,18.20
2007,08,24,12,17,18.20
2007,08,24,12,18,18.20
2007,08,24,12,19,18.30
2007,08,24,12,20,18.40
2007,08,24,12,21,18.40
2007,08,24,12,22,18.50
2007,08,24,12,23,18.60
2007,08,24,12,24,18.70
2007,08,24,12,25,18.60
2007,08,24,12,26,18.60
2007,08,24,12,27,18.50
2007,08,24,12,28,18.40
2007,08,24,12,29,18.40
2007,08,24,12,30,18.30
2007,08,24,12,31,18.40
2007,08,24,12,32,18.40
2007,08,24,12,33,18.50
2007,08,24,12,34,18.70
2007,08,24,12,35,18.70
2007,08,24,12,36,18.70
2007,08,24,12,37,18.60
2007,08,24,12,38,18.60
2007,08,24,12,39,18.70
2007,08,24,12,40,18.80
2007,08,24,12,41,18.80
2007,08,24,12,42,18.90
2007,08,24,12,43,18.80
2007,08,24,12,44,18.80
2007,08,24,12,45,18.80
2007,08,24,12,46,18.80
2007,08,24,12,47,18.90
2007,08,24,12,48,19.10
2007,08,24,12,49,19.00
2007,08,24,12,50,19.10
2007,08,24,12,51,19.10
2007,08,24,12,52,19.10
2007,08,24,12,53,19.10
2007,08,24,12,54,19.00
2007,08,24,12,55,18.90
2007,08,24,12,56,18.80
2007,08,24,12,57,18.80
2007,08,24,12,58,18.90
2007,08,24,12,59,18.90
2007,08,24,13,00,19.10
2007,08,24,13,01,19.10
2007,08,24,13,02,19.10
2007,08,24,13,03,19.10
2007,08,24,13,04,19.10
2007,08,24,13,05,19.10
2007,08,24,13,06,19.10
2007,08,24,13,07,19.20
2007,08,24,13,08,19.10
2007,08,24,13,09,19.10
2007,08,24,13,10,19.20
2007,08,24,13,11,19.10
2007,08,24,13,12,19.00
2007,08,24,13,13,18.90
2007,08,24,13,14,19.00
2007,08,24,13,15,19.20
2007,08,24,13,16,19.20
2007,08,24,13,17,19.30
2007,08,24,13,18,19.40
2007,08,24,13,19,19.40
2007,08,24,13,20,19.50
2007,08,24,13,21,19.50
2007,08,24,13,22,19.50
2007,08,24,13,23,19.40
2007,08,24,13,24,19.40
2007,08,24,13,25,19.50
2007,08,24,13,26,19.50
2007,08,24,13,27,19.50
2007,08,24,13,28,19.40
2007,08,24,13,29,19.30
2007,08,24,13,30,19.30
2007,08,24,13,31,19.10
2007,08,24,13,32,19.10
2007,08,24,13,33,19.20
2007,08,24,13,34,19.30
2007,08,24,13,35,19.40
2007,08,24,13,36,19.40
2007,08,24,13,37,19.40
2007,08,24,13,38,19.40
2007,08,24,13,39,19.40
2007,08,24,13,40,19.50
2007,08,24,13,41,19.50
2007,08,24,13,42,19.50
2007,08,24,13,43,19.50
2007,08,24,13,44,19.50
2007,08,24,13,45,19.50
2007,08,24,13,46,19.60
2007,08,24,13,47,19.60
2007,08,24,13,48,19.70
2007,08,24,13,49,19.80
2007,08,24,13,50,19.70
2007,08,24,13,51,19.60
2007,08,24,13,52,19.50
2007,08,24,13,53,19.50
2007,08,24,13,54,19.50
2007,08,24,13,55,19.60
2007,08,24,13,56,19.70
2007,08,24,13,57,19.90
2007,08,24,13,58,19.90
2007,08,24,13,59,19.90
2007,08,24,14,00,19.90
2007,08,24,14,01,19.80
2007,08,24,14,02,19.70
2007,08,24,14,03,19.70
2007,08,24,14,04,19.60
2007,08,24,14,05,19.60
2007,08,24,14,06,19.60
2007,08,24,14,07,19.60
2007,08,24,14,08,19.60
2007,08,24,14,09,19.60
2007,08,24,14,10,19.60
2007,08,24,14,11,19.60
2007,08,24,14,12,19.60
2007,08,24,14,13,19.60
2007,08,24,14,14,19.70
2007,08,24,14,15,19.70
2007,08,24,14,16,19.80
2007,08,24,14,17,19.80
2007,08,24,14,18,19.80
2007,08,24,14,19,19.80
2007,08,24,14,20,19.70
2007,08,24,14,21,19.60
2007,08,24,14,22,19.60
2007,08,24,14,23,19.60
2007,08,24,14,24,19.60
2007,08,24,14,25,19.40
2007,08,24,14,26,19.30
2007,08,24,14,27,19.20
2007,08,24,14,28,19.10
2007,08,24,14,29,19.00
2007,08,24,14,30,18.90
2007,08,24,14,31,18.80
2007,08,24,14,32,18.80
2007,08,24,14,33,18.70
2007,08,24,14,34,18.60
2007,08,24,14,35,18.60
2007,08,24,14,36,18.50
2007,08,24,14,37,18.40
2007,08,24,14,38,18.40
2007,08,24,14,39,18.40
2007,08,24,14,40,18.40
2007,08,24,14,41,18.40
2007,08,24,14,42,18.30
2007,08,24,14,43,18.20
2007,08,24,14,44,18.10
2007,08,24,14,45,17.90
2007,08,24,14,46,17.90
2007,08,24,14,47,17.90
2007,08,24,14,48,17.90
2007,08,24,14,49,18.00
2007,08,24,14,50,18.20
2007,08,24,14,51,18.20
2007,08,24,14,52,18.20
2007,08,24,14,53,18.20
2007,08,24,14,54,18.30
2007,08,24,14,55,18.20
2007,08,24,14,56,18.10
2007,08,24,14,57,17.90
2007,08,24,14,58,17.80
2007,08,24,14,59,17.70
2007,08,24,15,00,17.70
2007,08,24,15,01,17.50
2007,08,24,15,02,17.50
2007,08,24,15,03,17.40
2007,08,24,15,04,17.40
2007,08,24,15,05,17.40
2007,08,24,15,06,17.50
2007,08,24,15,07,17.50
2007,08,24,15,08,17.50
2007,08,24,15,09,17.60
2007,08,24,15,10,17.50
2007,08,24,15,11,17.50
2007,08,24,15,12,17.50
2007,08,24,15,13,17.50
2007,08,24,15,14,17.40
2007,08,24,15,15,17.40
2007,08,24,15,16,17.30
2007,08,24,15,17,17.40
2007,08,24,15,18,17.50
2007,08,24,15,19,17.40
2007,08,24,15,20,17.40
2007,08,24,15,21,17.30
2007,08,24,15,22,17.30
2007,08,24,15,23,17.30
2007,08,24,15,24,17.30
2007,08,24,15,25,17.30
2007,08,24,15,26,17.50
2007,08,24,15,27,17.50
2007,08,24,15,28,17.50
2007,08,24,15,29,17.60
2007,08,24,15,30,17.80
2007,08,24,15,31,17.80
2007,08,24,15,32,17.90
2007,08,24,15,33,18.00
2007,08,24,15,34,18.10
2007,08,24,15,35,18.10
2007,08,24,15,36,18.10
2007,08,24,15,37,18.10
2007,08,24,15,38,18.00
2007,08,24,15,39,17.90
2007,08,24,15,40,17.90
2007,08,24,15,41,18.10
2007,08,24,15,42,18.10
2007,08,24,15,43,18.20
2007,08,24,15,44,18.30
2007,08,24,15,45,18.40
2007,08,24,15,46,18.40
2007,08,24,15,47,18.40
2007,08,24,15,48,18.40
2007,08,24,15,49,18.40
2007,08,24,15,50,18.40
2007,08,24,15,51,18.40
2007,08,24,15,52,18.40
2007,08,24,15,53,18.50
2007,08,24,15,54,18.50
2007,08,24,15,55,18.60
2007,08,24,15,56,18.80
2007,08,24,15,57,18.90
2007,08,24,15,58,19.00
2007,08,24,15,59,19.10
2007,08,24,16,00,19.10
2007,08,24,16,01,19.10
2007,08,24,16,02,19.10
2007,08,24,16,03,19.10
2007,08,24,16,04,19.10
2007,08,24,16,05,19.10
2007,08,24,16,06,19.10
2007,08,24,16,07,19.10
2007,08,24,16,08,19.10
2007,08,24,16,09,19.10
2007,08,24,16,10,19.10
2007,08,24,16,11,19.10
2007,08,24,16,12,19.10
2007,08,24,16,13,19.10
2007,08,24,16,14,19.10
2007,08,24,16,15,19.20
2007,08,24,16,16,19.20
2007,08,24,16,17,19.20
2007,08,24,16,18,19.20
2007,08,24,16,19,19.30
2007,08,24,16,20,19.20
2007,08,24,16,21,19.30
2007,08,24,16,22,19.30
2007,08,24,16,23,19.30
2007,08,24,16,24,19.40
2007,08,24,16,25,19.50
2007,08,24,16,26,19.60
2007,08,24,16,27,19.70
2007,08,24,16,28,19.70
2007,08,24,16,29,19.80
2007,08,24,16,30,19.80
2007,08,24,16,31,19.70
2007,08,24,16,32,19.60
2007,08,24,16,33,19.40
2007,08,24,16,34,19.30
2007,08,24,16,35,19.20
2007,08,24,16,36,19.20
2007,08,24,16,37,19.10
2007,08,24,16,38,19.10
2007,08,24,16,39,19.20
2007,08,24,16,40,19.10
2007,08,24,16,41,19.10
2007,08,24,16,42,19.10
2007,08,24,16,43,19.10
2007,08,24,16,44,19.10
2007,08,24,16,45,19.10
2007,08,24,16,46,19.10
2007,08,24,16,47,19.10
2007,08,24,16,48,19.10
2007,08,24,16,49,19.10
2007,08,24,16,50,19.30
2007,08,24,16,51,19.40
2007,08,24,16,52,19.50
2007,08,24,16,53,19.60
2007,08,24,16,54,19.70
2007,08,24,16,55,19.90
2007,08,24,16,56,20.00
2007,08,24,16,57,20.10
2007,08,24,16,58,20.20
2007,08,24,16,59,20.20
2007,08,24,17,00,20.40
2007,08,24,17,01,20.40
2007,08,24,17,02,20.50
2007,08,24,17,03,20.50
2007,08,24,17,04,20.50
2007,08,24,17,05,20.50
2007,08,24,17,06,20.40
2007,08,24,17,07,20.30
2007,08,24,17,08,20.20
2007,08,24,17,09,20.10
2007,08,24,17,10,19.90
2007,08,24,17,11,19.90
2007,08,24,17,12,19.80
2007,08,24,17,13,19.80
2007,08,24,17,14,19.70
2007,08,24,17,15,19.70
2007,08,24,17,16,19.60
2007,08,24,17,17,19.60
2007,08,24,17,18,19.60
2007,08,24,17,19,19.60